Change the Weather History Date:

Tuesday, November 19, 2013

  Actual Average Record
Temperature  
Mean Temperature 46 °F -  
Max Temperature 60 °F 43 °F 67 °F (1975)
Min Temperature 32 °F 23 °F 3 °F (1978)
Degree Days  
Heating Degree Days 19    
Moisture  
Dew Point 28 °F    
Average Humidity 55    
Maximum Humidity 85    
Minimum Humidity 28    
Precipitation  
Precipitation 0.00 in - - ()
Sea Level Pressure  
Sea Level Pressure 29.99 in    
Wind  
Wind Speed 9 mph (South)    
Max Wind Speed 24 mph    
Max Gust Speed 34 mph    
Visibility 10 miles    
Events      
Averages and records for this station are not official NWS values.
T = Trace of Precipitation, MM = Missing Value Source: NWS Daily Summary

Daily Weather History Graph

Daily Weather History Graph

Search for Another Location

Airport or City:

Trip Planner

Search our weather history database for the weather conditions in past years. The results will help you decide how hot, cold, wet, or windy it might be!

Date:

Astronomy

Nov. 19, 2013 Rise Set
Actual Time 7:19 AM CST 4:55 PM CST
Civil Twilight 6:48 AM CST 5:26 PM CST
Nautical Twilight 6:14 AM CST 6:00 PM CST
Astronomical Twilight 5:40 AM CST 6:34 PM CST
Moon 6:47 PM CST (11/19) 8:59 AM CST (11/19)
Length of Visible Light 10h 38m
Length of Day
9h 36m
Waning Gibbous, 96% of the Moon is Illuminated
Nov 19
Waning Gibbous
Nov 25
Last Quarter
Dec 2
New
Dec 9
First Quarter
Dec 17
Full

Hourly Weather History & Observations

Time (CST) Temp. Windchill Dew Point Humidity Pressure Visibility Wind Dir Wind Speed Gust Speed Precip Events Conditions
12:15 AM 33.8 °F - 29.7 °F 85% 30.19 in 10.0 mi Calm Calm - N/A   Clear
12:35 AM 34.2 °F - 29.8 °F 84% 30.18 in 10.0 mi Calm Calm - N/A   Clear
12:55 AM 33.8 °F - 29.3 °F 84% 30.18 in 10.0 mi Calm Calm - N/A   Clear
1:15 AM 33.8 °F 30.8 °F 29.5 °F 84% 30.16 in 10.0 mi South 3.5 mph - N/A   Clear
1:35 AM 34.3 °F 30.2 °F 30.0 °F 84% 30.15 in 10.0 mi South 4.6 mph - N/A   Clear
1:55 AM 34.2 °F 29.0 °F 29.8 °F 84% 30.16 in 10.0 mi South 5.8 mph - N/A   Clear
2:15 AM 34.7 °F 30.6 °F 30.2 °F 84% 30.16 in 10.0 mi South 4.6 mph - N/A   Clear
2:35 AM 34.7 °F 29.6 °F 30.2 °F 84% 30.15 in 10.0 mi SSE 5.8 mph - N/A   Clear
2:55 AM 35.1 °F - 30.2 °F 82% 30.15 in 10.0 mi Calm Calm - N/A   Clear
3:15 AM 34.7 °F - 29.8 °F 82% 30.14 in 10.0 mi Calm Calm - N/A   Clear
3:35 AM 34.5 °F - 29.5 °F 82% 30.14 in 10.0 mi Calm Calm - N/A   Clear
3:55 AM 34.7 °F - 29.1 °F 80% 30.13 in 10.0 mi Calm Calm - N/A   Clear
4:15 AM 34.5 °F 29.4 °F 28.8 °F 79% 30.13 in 10.0 mi SSE 5.8 mph - N/A   Clear
4:35 AM 34.7 °F 28.8 °F 28.6 °F 78% 30.12 in 10.0 mi South 6.9 mph - N/A   Clear
4:55 AM 33.8 °F 28.6 °F 28.4 °F 81% 30.12 in 10.0 mi South 5.8 mph - N/A   Clear
5:15 AM 33.8 °F 27.0 °F 28.4 °F 81% 30.11 in 10.0 mi South 8.1 mph - N/A   Clear
5:35 AM 33.8 °F 26.4 °F 28.4 °F 81% 30.11 in 10.0 mi South 9.2 mph - N/A   Clear
5:55 AM 33.3 °F 25.7 °F 28.0 °F 81% 30.10 in 10.0 mi South 9.2 mph - N/A   Clear
6:15 AM 32.9 °F 26.7 °F 27.9 °F 82% 30.10 in 10.0 mi South 6.9 mph - N/A   Clear
6:35 AM 33.3 °F 26.4 °F 27.9 °F 81% 30.09 in 10.0 mi South 8.1 mph - N/A   Clear
6:55 AM 33.4 °F 26.6 °F 27.5 °F 79% 30.09 in 10.0 mi South 8.1 mph - N/A   Clear
7:15 AM 33.1 °F 26.1 °F 27.5 °F 80% 30.09 in 10.0 mi South 8.1 mph - N/A   Clear
7:35 AM 33.3 °F 25.1 °F 27.7 °F 80% 30.08 in 10.0 mi South 10.4 mph - N/A   Clear
7:55 AM 33.8 °F 26.4 °F 28.0 °F 79% 30.08 in 10.0 mi South 9.2 mph - N/A   Clear
8:15 AM 34.9 °F 26.6 °F 28.4 °F 77% 30.07 in 10.0 mi South 11.5 mph - N/A   Clear
8:35 AM 36.3 °F 29.5 °F 29.3 °F 76% 30.07 in 10.0 mi South 9.2 mph - N/A   Clear
8:55 AM 38.5 °F 32.1 °F 30.0 °F 72% 30.08 in 10.0 mi South 9.2 mph - N/A   Clear
9:15 AM 40.5 °F 33.6 °F 30.6 °F 68% 30.06 in 10.0 mi South 11.5 mph - N/A   Clear
9:35 AM 42.4 °F 36.5 °F 31.3 °F 65% 30.07 in 10.0 mi South 10.4 mph - N/A   Clear
9:55 AM 45.1 °F 39.1 °F 30.9 °F 58% 30.06 in 10.0 mi South 12.7 mph 18.4 mph N/A   Clear
10:15 AM 47.3 °F - 29.1 °F 49% 30.04 in 10.0 mi South 16.1 mph 21.9 mph N/A   Clear
10:35 AM 49.6 °F - 29.8 °F 47% 30.04 in 10.0 mi South 16.1 mph 21.9 mph N/A   Clear
10:55 AM 51.4 °F - 28.0 °F 40% 30.03 in 10.0 mi South 16.1 mph 23.0 mph N/A   Clear
11:15 AM 53.4 °F - 26.8 °F 36% 30.02 in 10.0 mi South 18.4 mph 24.2 mph N/A   Clear
11:35 AM 54.3 °F - 26.1 °F 34% 30.00 in 10.0 mi South 20.7 mph 25.3 mph N/A   Clear
11:55 AM 55.6 °F - 27.0 °F 33% 29.98 in 10.0 mi South 16.1 mph 23.0 mph N/A   Clear
12:15 PM 56.5 °F - 26.4 °F 32% 29.96 in 10.0 mi South 18.4 mph 25.3 mph N/A   Clear
12:35 PM 57.2 °F - 26.1 °F 30% 29.95 in 10.0 mi South 18.4 mph 24.2 mph N/A   Clear
12:55 PM 57.9 °F - 25.5 °F 29% 29.94 in 10.0 mi South 19.6 mph 27.6 mph N/A   Clear
1:15 PM 59.0 °F - 27.1 °F 30% 29.93 in 10.0 mi South 23.0 mph 27.6 mph N/A   Clear
1:35 PM 59.5 °F - 28.0 °F 30% 29.92 in 10.0 mi South 19.6 mph 31.1 mph N/A   Clear
1:55 PM 59.9 °F - 27.9 °F 30% 29.91 in 10.0 mi South 21.9 mph 29.9 mph N/A   Clear
2:35 PM 60.3 °F - 27.3 °F 29% 29.88 in 10.0 mi South 24.2 mph 29.9 mph N/A   Clear
2:55 PM 60.4 °F - 27.1 °F 28% 29.87 in 10.0 mi South 24.2 mph 34.5 mph N/A   Clear
3:15 PM 60.3 °F - 27.0 °F 28% 29.87 in 10.0 mi South 23.0 mph 29.9 mph N/A   Clear
3:35 PM 60.1 °F - 26.8 °F 28% 29.86 in 10.0 mi South 21.9 mph 28.8 mph N/A   Clear
3:55 PM 59.0 °F - 26.4 °F 29% 29.86 in 10.0 mi South 21.9 mph 27.6 mph N/A   Clear
4:15 PM 57.7 °F - 26.6 °F 30% 29.86 in 10.0 mi South 19.6 mph 26.5 mph N/A   Clear
4:35 PM 56.7 °F - 26.1 °F 31% 29.86 in 10.0 mi South 17.3 mph 23.0 mph N/A   Clear
4:55 PM 55.6 °F - 25.7 °F 32% 29.86 in 10.0 mi SSE 17.3 mph 24.2 mph N/A   Clear
5:15 PM 54.3 °F - 26.4 °F 34% 29.86 in 10.0 mi SSE 17.3 mph - N/A   Clear
5:35 PM 53.8 °F - 25.3 °F 33% 29.86 in 10.0 mi SSE 17.3 mph - N/A   Clear
5:55 PM 53.1 °F - 25.0 °F 34% 29.86 in 10.0 mi SSE 17.3 mph 23.0 mph N/A   Clear
6:15 PM 52.0 °F - 25.5 °F 36% 29.87 in 10.0 mi SSE 12.7 mph - N/A   Clear
6:35 PM 52.0 °F - 25.2 °F 35% 29.86 in 10.0 mi SSE 19.6 mph 26.5 mph N/A   Clear
6:55 PM 51.8 °F - 24.8 °F 35% 29.86 in 10.0 mi South 18.4 mph 25.3 mph N/A   Clear
7:15 PM 50.9 °F - 25.5 °F 37% 29.86 in 10.0 mi SSE 17.3 mph 23.0 mph N/A   Clear
7:35 PM 50.9 °F - 26.4 °F 39% 29.86 in 10.0 mi South 16.1 mph 23.0 mph N/A   Scattered Clouds
8:15 PM 51.4 °F - 27.5 °F 40% 29.86 in 10.0 mi South 19.6 mph 26.5 mph N/A   Mostly Cloudy
8:35 PM 51.1 °F - 28.0 °F 41% 29.86 in 10.0 mi South 19.6 mph 25.3 mph N/A   Mostly Cloudy
8:55 PM 50.2 °F - 28.4 °F 43% 29.86 in 10.0 mi South 17.3 mph 23.0 mph N/A   Scattered Clouds
9:15 PM 49.8 °F - 28.4 °F 44% 29.86 in 10.0 mi South 16.1 mph 23.0 mph N/A   Scattered Clouds
9:35 PM 50.2 °F - 28.4 °F 43% 29.86 in 10.0 mi South 19.6 mph 25.3 mph N/A   Scattered Clouds
9:55 PM 50.0 °F - 28.2 °F 43% 29.86 in 10.0 mi South 17.3 mph 27.6 mph N/A   Scattered Clouds
10:15 PM 50.0 °F - 28.0 °F 43% 29.86 in 10.0 mi South 19.6 mph 25.3 mph N/A   Scattered Clouds
10:35 PM 50.5 °F - 28.0 °F 42% 29.86 in 10.0 mi South 16.1 mph 26.5 mph N/A   Mostly Cloudy
10:55 PM 50.7 °F - 27.9 °F 41% 29.85 in 10.0 mi South 17.3 mph 25.3 mph N/A   Mostly Cloudy
11:15 PM 50.4 °F - 27.9 °F 42% 29.86 in 10.0 mi South 15.0 mph 21.9 mph N/A   Scattered Clouds
11:35 PM 50.5 °F - 27.3 °F 41% 29.86 in 10.0 mi South 17.3 mph 24.2 mph N/A   Clear
11:55 PM 50.4 °F - 27.0 °F 40% 29.86 in 10.0 mi South 16.1 mph 24.2 mph N/A   Clear